TimeCDT,TemperatureF,Dew PointF,Humidity,Sea Level PressureIn,VisibilityMPH,Wind Direction,Wind SpeedMPH,Gust SpeedMPH,PrecipitationIn,Events,Conditions,WindDirDegrees,DateUTC
12:26 AM,41.0,39.2,93,30.01,6.0,North,9.2,-,N/A,,Overcast,350,2013-10-30 05:26:00
12:53 AM,41.0,39.9,96,30.04,6.0,NNW,8.1,-,N/A,,Overcast,340,2013-10-30 05:53:00
1:53 AM,39.9,39.0,97,30.01,4.0,North,11.5,-,N/A,,Overcast,350,2013-10-30 06:53:00
2:07 AM,39.2,39.2,100,29.97,6.0,North,13.8,-,N/A,,Overcast,360,2013-10-30 07:07:00
2:46 AM,39.2,39.2,100,29.97,10.0,North,9.2,-,N/A,,Overcast,360,2013-10-30 07:46:00
2:53 AM,39.0,37.9,96,30.01,10.0,North,9.2,-,N/A,,Overcast,350,2013-10-30 07:53:00
3:08 AM,39.2,37.4,93,29.98,10.0,North,6.9,-,N/A,,Overcast,360,2013-10-30 08:08:00
3:33 AM,39.2,37.4,93,29.96,10.0,North,11.5,-,N/A,,Overcast,350,2013-10-30 08:33:00
3:53 AM,39.0,37.9,96,30.00,10.0,North,6.9,-,N/A,,Overcast,360,2013-10-30 08:53:00
4:53 AM,37.9,37.9,100,29.96,2.5,NNE,9.2,-,N/A,,Overcast,20,2013-10-30 09:53:00
5:22 AM,37.4,37.4,100,29.91,2.0,NE,3.5,-,0.00,Rain-Thunderstorm,Light Rain,40,2013-10-30 10:22:00
5:53 AM,37.0,37.0,100,29.98,8.0,Variable,6.9,24.2,0.32,Snow-Thunderstorm,Light Thunderstorms and Snow,0,2013-10-30 10:53:00
6:07 AM,37.4,37.4,100,29.98,9.0,WNW,5.8,-,0.00,,Overcast,290,2013-10-30 11:07:00
6:53 AM,37.9,37.0,97,29.97,10.0,NNE,4.6,-,0.00,,Overcast,20,2013-10-30 11:53:00
7:21 AM,37.4,37.4,100,29.93,10.0,North,3.5,-,N/A,,Overcast,10,2013-10-30 12:21:00
7:53 AM,37.9,37.0,97,29.96,10.0,NNE,3.5,-,N/A,,Overcast,20,2013-10-30 12:53:00
8:48 AM,39.2,37.4,93,29.91,7.0,Calm,Calm,-,N/A,,Overcast,0,2013-10-30 13:48:00
8:53 AM,39.0,37.0,93,29.94,7.0,Calm,Calm,-,N/A,,Overcast,0,2013-10-30 13:53:00
9:53 AM,39.0,37.9,96,29.96,10.0,WNW,4.6,-,N/A,,Overcast,300,2013-10-30 14:53:00
10:53 AM,39.9,37.9,93,29.96,5.0,NW,6.9,-,N/A,,Overcast,310,2013-10-30 15:53:00
11:53 AM,41.0,39.0,93,29.93,9.0,NW,6.9,-,N/A,,Overcast,320,2013-10-30 16:53:00
12:53 PM,43.0,41.0,93,29.93,10.0,NW,6.9,-,N/A,,Overcast,310,2013-10-30 17:53:00
1:53 PM,45.0,42.1,90,29.88,10.0,NW,5.8,-,N/A,,Overcast,310,2013-10-30 18:53:00
2:53 PM,46.9,43.0,86,29.86,10.0,Variable,5.8,-,N/A,,Overcast,0,2013-10-30 19:53:00
3:22 PM,48.2,42.8,82,29.82,10.0,WNW,8.1,-,N/A,,Overcast,290,2013-10-30 20:22:00
3:53 PM,48.0,42.1,80,29.83,10.0,NNW,3.5,-,N/A,,Overcast,330,2013-10-30 20:53:00
4:08 PM,48.2,42.8,82,29.80,10.0,Calm,Calm,-,N/A,,Mostly Cloudy,0,2013-10-30 21:08:00
4:53 PM,51.1,42.1,71,29.82,10.0,Calm,Calm,-,N/A,,Partly Cloudy,0,2013-10-30 21:53:00
5:14 PM,50.0,42.8,76,29.80,10.0,Calm,Calm,-,N/A,,Mostly Cloudy,0,2013-10-30 22:14:00
5:53 PM,50.0,42.1,74,29.82,10.0,NNW,6.9,-,N/A,,Overcast,330,2013-10-30 22:53:00
6:35 PM,46.4,41.0,81,29.79,10.0,North,4.6,-,N/A,,Partly Cloudy,10,2013-10-30 23:35:00
6:53 PM,45.0,41.0,86,29.83,10.0,ENE,3.5,-,N/A,,Mostly Cloudy,70,2013-10-30 23:53:00
7:53 PM,46.9,43.0,86,29.85,10.0,North,4.6,-,N/A,,Overcast,360,2013-10-31 00:53:00
8:53 PM,46.0,42.1,86,29.85,10.0,North,3.5,-,N/A,,Overcast,350,2013-10-31 01:53:00
9:53 PM,43.0,39.9,89,29.85,10.0,Calm,Calm,-,N/A,,Mostly Cloudy,0,2013-10-31 02:53:00
10:05 PM,42.8,39.2,87,29.81,10.0,Calm,Calm,-,N/A,,Partly Cloudy,0,2013-10-31 03:05:00
10:53 PM,39.9,37.9,93,29.83,3.0,Calm,Calm,-,N/A,,Clear,0,2013-10-31 03:53:00
10:55 PM,39.2,37.4,93,29.80,1.8,Calm,Calm,-,N/A,,Clear,0,2013-10-31 03:55:00
11:10 PM,35.6,35.6,100,29.80,3.0,SSE,3.5,-,N/A,,Clear,150,2013-10-31 04:10:00
11:25 PM,35.6,35.6,100,29.80,1.5,Calm,Calm,-,N/A,,Clear,0,2013-10-31 04:25:00
11:34 PM,35.6,35.6,100,29.80,0.5,Calm,Calm,-,N/A,Fog,Fog,0,2013-10-31 04:34:00
11:42 PM,37.4,35.6,93,29.79,2.0,SSW,3.5,-,N/A,,Clear,210,2013-10-31 04:42:00
11:53 PM,35.1,35.1,100,29.83,0.8,South,3.5,-,N/A,,Clear,180,2013-10-31 04:53:00